Location: Kikino
(54.4440°N, 112.0940°W)
Time: 17:52:22
(UTC+00:00)

A-11 Canister half - Pass Details

Date: 21 May 2024
Orbit: 1525 x 1683 km, 47.3° (Epoch: 12 June)

Event Time Altitude Azimuth Distance (km) Brightness Sun altitude
Rises 03:19:50 0° 183° (S) 4,677 11.2 1.1°
Reaches altitude 10° 03:24:17 10° 165° (SSE) 3,716 10.6 0.6°
Maximum altitude 03:29:38 17° 129° (SE) 3,234 10.1 0.0°
Drops below altitude 10° 03:35:03 10° 94° (E) 3,788 10.6 -0.6°
Sets 03:39:37 0° 76° (ENE) 4,808 11.2 -1.2°
